When you browse on this site, cookies collect data to enhance your experience and personalize the content and advertising you see.
Visit our Privacy Policy to learn more. By continuing to use the site, you agree to this use of cookies and data.
  • Em Portugal
  • Lista de países
  • Para 7 dias
  • Temperatura da água
  • Mapa do tempo
  • Widgets de tempo
  • user-avatar
    Iniciar Sessão

    Previsão horária em Burhimahi

    Hoje, 25 Agosto, Domingo

    Tempo Temperatura Precipitação Vento Pressão Humidade
    00:00 +20°C° 0 mm 2 m/s 663 mmHg 44%
    01:00 +19°C° 0 mm 2 m/s 663 mmHg 44%
    02:00 +19°C° 0 mm 2 m/s 663 mmHg 44%
    03:00 +18°C° 0 mm 2 m/s 663 mmHg 44%
    04:00 +19°C° 0 mm 2 m/s 663 mmHg 45%
    05:00 +19°C° 0 mm 2 m/s 663 mmHg 46%
    06:00 +19°C° 0 mm 2 m/s 663 mmHg 46%
    07:00 +21°C° 0 mm 2 m/s 664 mmHg 42%
    08:00 +24°C° 0 mm 2 m/s 665 mmHg 38%
    09:00 +26°C° 0 mm 3 m/s 666 mmHg 33%
    10:00 +27°C° 0 mm 3 m/s 665 mmHg 34%
    11:00 +27°C° 0 mm 3 m/s 665 mmHg 35%
    12:00 +27°C° 0 mm 4 m/s 665 mmHg 35%
    13:00 +27°C° 0 mm 4 m/s 665 mmHg 37%
    14:00 +27°C° 0 mm 3 m/s 665 mmHg 39%
    15:00 +27°C° 0 mm 3 m/s 665 mmHg 41%
    16:00 +25°C° 0.3 mm 3 m/s 664 mmHg 46%
    17:00 +23°C° 0.3 mm 2 m/s 664 mmHg 52%
    18:00 +22°C° 0.3 mm 1 m/s 663 mmHg 57%
    19:00 +21°C° 0.5 mm 1 m/s 663 mmHg 61%
    20:00 +19°C° 0.5 mm 1 m/s 663 mmHg 64%
    21:00 +18°C° 0.5 mm 1 m/s 663 mmHg 67%
    22:00 +18°C° 0.1 mm 1 m/s 663 mmHg 69%
    23:00 +18°C° 0.1 mm 1 m/s 663 mmHg 70%

    Amanhã, 26 Agosto, Segunda-feira

    Tempo Temperatura Precipitação Vento Pressão Humidade
    00:00 +17°C° 0.1 mm 2 m/s 663 mmHg 71%
    01:00 +16°C° 0 mm 1 m/s 663 mmHg 73%
    02:00 +16°C° 0 mm 1 m/s 663 mmHg 75%
    03:00 +16°C° 0 mm 1 m/s 664 mmHg 77%
    04:00 +16°C° 0 mm 1 m/s 664 mmHg 77%
    05:00 +16°C° 0 mm 1 m/s 664 mmHg 76%
    06:00 +16°C° 0 mm 1 m/s 664 mmHg 76%
    07:00 +18°C° 0 mm 2 m/s 665 mmHg 71%
    08:00 +19°C° 0 mm 2 m/s 665 mmHg 65%
    09:00 +21°C° 0 mm 3 m/s 666 mmHg 59%
    10:00 +21°C° 0.1 mm 3 m/s 666 mmHg 62%
    11:00 +21°C° 0.1 mm 3 m/s 666 mmHg 65%
    12:00 +21°C° 0.1 mm 3 m/s 666 mmHg 67%
    13:00 +20°C° 0.7 mm 3 m/s 666 mmHg 70%
    14:00 +20°C° 0.7 mm 3 m/s 665 mmHg 74%
    15:00 +20°C° 0.7 mm 2 m/s 665 mmHg 77%
    16:00 +19°C° 0.5 mm 2 m/s 665 mmHg 81%
    17:00 +18°C° 0.5 mm 2 m/s 665 mmHg 84%
    18:00 +17°C° 0.5 mm 2 m/s 665 mmHg 88%
    19:00 +17°C° 0.5 mm 2 m/s 665 mmHg 90%
    20:00 +18°C° 0.5 mm 1 m/s 666 mmHg 92%
    21:00 +16°C° 0.5 mm 1 m/s 666 mmHg 93%
    22:00 +16°C° 0.3 mm 1 m/s 666 mmHg 93%
    23:00 +16°C° 0.3 mm 1 m/s 666 mmHg 93%

    Depois de amanhã, 27 Agosto, Terça-feira

    Tempo Temperatura Precipitação Vento Pressão Humidade
    00:00 +16°C° 0.3 mm 1 m/s 666 mmHg 93%
    01:00 +16°C° 0 mm 1 m/s 666 mmHg 92%
    02:00 +15°C° 0 mm 1 m/s 665 mmHg 92%
    03:00 +15°C° 0 mm 1 m/s 665 mmHg 92%
    04:00 +15°C° 0 mm 1 m/s 665 mmHg 91%
    05:00 +15°C° 0 mm 1 m/s 665 mmHg 90%
    06:00 +15°C° 0 mm 1 m/s 665 mmHg 88%
    07:00 +16°C° 0 mm 2 m/s 665 mmHg 82%
    08:00 +18°C° 0 mm 2 m/s 665 mmHg 77%
    09:00 +19°C° 0 mm 3 m/s 665 mmHg 71%
    10:00 +20°C° 0 mm 3 m/s 665 mmHg 68%
    11:00 +20°C° 0 mm 3 m/s 665 mmHg 66%
    12:00 +21°C° 0 mm 4 m/s 665 mmHg 63%
    13:00 +21°C° 0.3 mm 4 m/s 665 mmHg 64%
    14:00 +21°C° 0.3 mm 4 m/s 664 mmHg 64%
    15:00 +21°C° 0.3 mm 4 m/s 664 mmHg 65%
    16:00 +20°C° 0.3 mm 3 m/s 663 mmHg 69%
    17:00 +19°C° 0.3 mm 2 m/s 663 mmHg 73%
    18:00 +18°C° 0.3 mm 2 m/s 662 mmHg 78%
    19:00 +18°C° 0.2 mm 1 m/s 662 mmHg 79%
    20:00 +18°C° 0.2 mm 1 m/s 662 mmHg 80%
    21:00 +15°C° 0.2 mm 0 m/s 662 mmHg 82%
    22:00 +16°C° 0.1 mm 1 m/s 662 mmHg 81%
    23:00 +16°C° 0.1 mm 1 m/s 662 mmHg 81%

    28 Agosto, Quarta-feira

    Tempo Temperatura Precipitação Vento Pressão Humidade
    00:00 +16°C° 0.1 mm 1 m/s 662 mmHg 81%
    01:00 +16°C° 0 mm 1 m/s 662 mmHg 82%
    02:00 +15°C° 0 mm 1 m/s 661 mmHg 82%
    03:00 +15°C° 0 mm 1 m/s 661 mmHg 83%
    04:00 +15°C° 0 mm 1 m/s 661 mmHg 81%
    05:00 +15°C° 0 mm 1 m/s 661 mmHg 80%
    06:00 +16°C° 0 mm 1 m/s 662 mmHg 78%
    07:00 +18°C° 0 mm 1 m/s 662 mmHg 73%
    08:00 +19°C° 0 mm 2 m/s 662 mmHg 68%
    09:00 +21°C° 0 mm 2 m/s 663 mmHg 63%
    10:00 +21°C° 0.1 mm 2 m/s 663 mmHg 62%
    11:00 +22°C° 0.1 mm 3 m/s 663 mmHg 62%
    12:00 +22°C° 0.1 mm 3 m/s 663 mmHg 61%
    13:00 +22°C° 0.3 mm 3 m/s 663 mmHg 62%
    14:00 +21°C° 0.3 mm 2 m/s 662 mmHg 63%
    15:00 +21°C° 0.3 mm 2 m/s 662 mmHg 63%
    16:00 +20°C° 0.1 mm 2 m/s 662 mmHg 64%
    17:00 +21°C° 0.1 mm 1 m/s 662 mmHg 64%
    18:00 +20°C° 0.1 mm 1 m/s 662 mmHg 64%
    19:00 +19°C° 0 mm 1 m/s 662 mmHg 64%
    20:00 +19°C° 0 mm 1 m/s 662 mmHg 63%
    21:00 +18°C° 0 mm 1 m/s 662 mmHg 63%
    22:00 +16°C° 0 mm 1 m/s 662 mmHg 63%
    23:00 +16°C° 0 mm 1 m/s 662 mmHg 63%

    29 Agosto, Quinta-feira

    Tempo Temperatura Precipitação Vento Pressão Humidade
    00:00 +16°C° 0 mm 1 m/s 662 mmHg 63%
    01:00 +15°C° 0 mm 1 m/s 662 mmHg 64%
    02:00 +15°C° 0 mm 1 m/s 662 mmHg 65%
    03:00 +15°C° 0 mm 1 m/s 662 mmHg 67%
    04:00 +15°C° 0 mm 1 m/s 662 mmHg 67%
    05:00 +15°C° 0 mm 1 m/s 662 mmHg 68%
    06:00 +15°C° 0 mm 1 m/s 663 mmHg 69%
    07:00 +16°C° 0 mm 2 m/s 663 mmHg 67%
    08:00 +18°C° 0 mm 2 m/s 663 mmHg 65%
    09:00 +19°C° 0 mm 3 m/s 664 mmHg 63%
    10:00 +18°C° 0 mm 3 m/s 664 mmHg 67%
    11:00 +18°C° 0 mm 3 m/s 664 mmHg 71%
    12:00 +17°C° 0 mm 3 m/s 663 mmHg 75%
    13:00 +17°C° 0 mm 3 m/s 663 mmHg 79%
    14:00 +16°C° 0 mm 2 m/s 663 mmHg 84%
    15:00 +15°C° 0 mm 2 m/s 662 mmHg 88%
    16:00 +15°C° 0 mm 2 m/s 662 mmHg 88%
    17:00 +14°C° 0 mm 2 m/s 662 mmHg 89%
    18:00 +14°C° 0 mm 1 m/s 662 mmHg 89%
    19:00 +14°C° 0 mm 1 m/s 662 mmHg 89%
    20:00 +13°C° 0 mm 1 m/s 663 mmHg 89%
    21:00 +13°C° 0 mm 1 m/s 663 mmHg 89%
    22:00 +13°C° 0 mm 1 m/s 663 mmHg 89%
    23:00 +13°C° 0 mm 1 m/s 663 mmHg 89%

    30 Agosto, Sexta-feira

    Tempo Temperatura Precipitação Vento Pressão Humidade
    00:00 +13°C° 0 mm 1 m/s 663 mmHg 89%
    01:00 +13°C° 0 mm 1 m/s 663 mmHg 90%
    02:00 +13°C° 0 mm 1 m/s 662 mmHg 90%
    03:00 +12°C° 0 mm 1 m/s 662 mmHg 91%
    04:00 +12°C° 0 mm 1 m/s 662 mmHg 91%
    05:00 +12°C° 0 mm 1 m/s 662 mmHg 91%
    06:00 +12°C° 0 mm 1 m/s 662 mmHg 91%
    07:00 +12°C° 0.1 mm 1 m/s 662 mmHg 90%
    08:00 +12°C° 0.1 mm 1 m/s 662 mmHg 89%
    09:00 +12°C° 0.1 mm 1 m/s 662 mmHg 88%
    10:00 +13°C° 0 mm 1 m/s 663 mmHg 87%
    11:00 +13°C° 0 mm 1 m/s 663 mmHg 85%
    12:00 +13°C° 0 mm 1 m/s 663 mmHg 83%
    13:00 +14°C° 0.1 mm 2 m/s 663 mmHg 83%
    14:00 +14°C° 0.1 mm 2 m/s 662 mmHg 83%
    15:00 +14°C° 0.1 mm 2 m/s 662 mmHg 83%
    16:00 +14°C° 0 mm 1 m/s 662 mmHg 85%
    17:00 +13°C° 0 mm 1 m/s 662 mmHg 86%
    18:00 +13°C° 0 mm 1 m/s 662 mmHg 88%
    19:00 +13°C° 0 mm 1 m/s 662 mmHg 89%
    20:00 +13°C° 0 mm 1 m/s 663 mmHg 89%
    21:00 +12°C° 0 mm 0 m/s 663 mmHg 90%
    22:00 +12°C° 0 mm 0 m/s 662 mmHg 90%
    23:00 +11°C° 0 mm 0 m/s 662 mmHg 91%
    Mostrar mais